| time (UTC) | temp F | wind direction | speed knots | gust knots | rain 1hr in | rain 24hr in | rain mn in | humidity % | barometer mb |
| 20260510030714 | 58 | 118 | 0.0 | 0.0 | 0.00 | 0.00 | 0.00 | 91 | 1011.9 |
| 20260510030141 | 58 | 118 | 0.0 | 0.0 | 0.00 | 0.00 | 0.00 | 91 | 1011.9 |
| 20260510025608 | 58 | 119 | 0.0 | 0.0 | 0.00 | 0.00 | 0.00 | 91 | 1011.9 |
| 20260510025107 | 59 | 119 | 0.0 | 0.0 | 0.00 | 0.00 | 0.00 | 90 | 1011.5 |
| 20260510024606 | 59 | 118 | 0.0 | 0.0 | 0.00 | 0.00 | 0.00 | 90 | 1011.5 |
| 20260510024032 | 59 | 118 | 0.0 | 0.0 | 0.00 | 0.00 | 0.00 | 89 | 1011.9 |
| 20260510023459 | 59 | 119 | 0.0 | 0.0 | 0.00 | 0.00 | 0.00 | 89 | 1011.5 |
| 20260510022956 | 59 | 119 | 0.0 | 0.0 | 0.00 | 0.00 | 0.00 | 88 | 1011.5 |
| 20260510022453 | 60 | 119 | 0.0 | 0.0 | 0.00 | 0.00 | 0.00 | 88 | 1011.5 |
| 20260510021920 | 60 | 119 | 0.0 | 0.9 | 0.00 | 0.00 | 0.00 | 88 | 1011.5 |
| 20260510021418 | 60 | 118 | 0.0 | 0.9 | 0.00 | 0.00 | 0.00 | 88 | 1011.5 |
| 20260510020916 | 60 | 119 | 0.0 | 0.9 | 0.00 | 0.00 | 0.00 | 88 | 1011.5 |
| 20260510020415 | 60 | 119 | 0.9 | 0.9 | 0.00 | 0.00 | 0.00 | 88 | 1011.2 |
| 20260510015913 | 60 | 118 | 0.0 | 0.0 | 0.00 | 0.00 | 0.00 | 88 | 1011.2 |
| 20260510015411 | 60 | 119 | 0.0 | 0.9 | 0.00 | 0.00 | 0.00 | 88 | 1011.2 |
| 20260510014838 | 61 | 119 | 0.0 | 0.9 | 0.00 | 0.00 | 0.00 | 88 | 1010.8 |
| 20260510014305 | 61 | 118 | 0.0 | 0.9 | 0.00 | 0.00 | 0.00 | 87 | 1010.8 |
| 20260510013733 | 61 | 119 | 0.9 | 0.9 | 0.00 | 0.00 | 0.00 | 87 | 1010.8 |
| 20260510013230 | 61 | 118 | 0.0 | 0.9 | 0.00 | 0.00 | 0.00 | 87 | 1010.5 |
| 20260510012727 | 61 | 131 | 0.0 | 0.0 | 0.00 | 0.00 | 0.00 | 86 | 1010.5 |
| 20260510012225 | 62 | 131 | 0.0 | 0.0 | 0.00 | 0.00 | 0.00 | 86 | 1010.5 |
| 20260510011726 | 62 | 131 | 0.0 | 0.0 | 0.00 | 0.00 | 0.00 | 86 | 1010.5 |
| 20260510011222 | 62 | 131 | 0.0 | 0.0 | 0.00 | 0.00 | 0.00 | 85 | 1010.2 |
| 20260510010721 | 63 | 131 | 0.0 | 0.0 | 0.00 | 0.00 | 0.00 | 84 | 1010.2 |
| 20260510010148 | 63 | 131 | 0.0 | 0.0 | 0.00 | 0.00 | 0.00 | 83 | 1010.2 |
| 20260510005647 | 64 | 131 | 0.0 | 0.0 | 0.00 | 0.00 | 0.00 | 83 | 1010.2 |
| 20260510005146 | 64 | 131 | 0.0 | 0.0 | 0.00 | 0.00 | 0.00 | 83 | 1009.8 |
| 20260510004645 | 64 | 131 | 0.0 | 0.0 | 0.00 | 0.00 | 0.00 | 82 | 1009.8 |
| 20260510004143 | 65 | 131 | 0.0 | 0.0 | 0.00 | 0.00 | 0.00 | 82 | 1009.8 |
| 20260510003611 | 65 | 131 | 0.0 | 0.0 | 0.00 | 0.00 | 0.00 | 81 | 1009.8 |
| 20260510003107 | 66 | 131 | 0.0 | 0.0 | 0.00 | 0.00 | 0.00 | 80 | 1009.8 |
| 20260510002604 | 66 | 131 | 0.0 | 0.0 | 0.00 | 0.00 | 0.00 | 80 | 1009.8 |
| 20260510002031 | 67 | 131 | 0.0 | 0.0 | 0.00 | 0.00 | 0.00 | 80 | 1009.8 |
| 20260510001529 | 67 | 131 | 0.0 | 0.0 | 0.00 | 0.00 | 0.00 | 79 | 1009.5 |
| 20260510001028 | 68 | 131 | 0.0 | 0.9 | 0.00 | 0.00 | 0.00 | 79 | 1009.5 |
| 20260510000526 | 68 | 131 | 0.0 | 0.9 | 0.00 | 0.00 | 0.00 | 77 | 1009.5 |
| 20260510000025 | 69 | 131 | 0.0 | 0.9 | 0.00 | 0.00 | 0.00 | 76 | 1009.5 |
| 20260509235522 | 70 | 131 | 0.0 | 0.9 | 0.00 | 0.00 | 0.00 | 75 | 1009.5 |
| 20260509235021 | 70 | 133 | 0.0 | 0.0 | 0.00 | 0.00 | 0.00 | 75 | 1009.5 |
| 20260509234520 | 71 | 133 | 0.0 | 0.0 | 0.00 | 0.00 | 0.00 | 74 | 1009.1 |
| 20260509234019 | 71 | 133 | 0.0 | 0.0 | 0.00 | 0.00 | 0.00 | 74 | 1009.1 |
| 20260509233517 | 72 | 132 | 0.0 | 0.0 | 0.00 | 0.00 | 0.00 | 72 | 1009.1 |
| 20260509233015 | 72 | 133 | 0.0 | 0.0 | 0.00 | 0.00 | 0.00 | 71 | 1009.1 |
| 20260509232441 | 73 | 133 | 0.0 | 0.0 | 0.00 | 0.00 | 0.00 | 68 | 1008.8 |
| 20260509231939 | 73 | 132 | 0.0 | 0.0 | 0.00 | 0.00 | 0.00 | 68 | 1009.1 |
| 20260509231438 | 73 | 132 | 0.0 | 0.0 | 0.00 | 0.00 | 0.00 | 67 | 1009.1 |
| 20260509230936 | 73 | 132 | 0.0 | 0.0 | 0.00 | 0.00 | 0.00 | 67 | 1009.1 |
| 20260509230435 | 73 | 133 | 0.0 | 0.0 | 0.00 | 0.00 | 0.00 | 66 | 1009.1 |
| 20260509225933 | 74 | 103 | 0.0 | 0.0 | 0.00 | 0.00 | 0.00 | 63 | 1008.8 |
| 20260509225431 | 74 | 160 | 0.0 | 0.0 | 0.00 | 0.00 | 0.00 | 61 | 1008.8 |
| 20260509224930 | 74 | 160 | 0.0 | 0.9 | 0.00 | 0.00 | 0.00 | 64 | 1008.8 |
| 20260509224428 | 74 | 160 | 0.0 | 0.9 | 0.00 | 0.00 | 0.00 | 64 | 1008.8 |
| 20260509223927 | 75 | 160 | 0.0 | 1.7 | 0.00 | 0.00 | 0.00 | 61 | 1008.8 |
| 20260509223426 | 75 | 162 | 0.9 | 1.7 | 0.00 | 0.00 | 0.00 | 61 | 1008.8 |
| 20260509222924 | 75 | 139 | 0.9 | 1.7 | 0.00 | 0.00 | 0.00 | 59 | 1008.8 |
| 20260509222422 | 75 | 157 | 1.7 | 1.7 | 0.00 | 0.00 | 0.00 | 62 | 1008.8 |
| 20260509221919 | 75 | 114 | 0.0 | 0.9 | 0.00 | 0.00 | 0.00 | 62 | 1008.5 |
| 20260509221417 | 75 | 116 | 0.9 | 0.9 | 0.00 | 0.00 | 0.00 | 59 | 1008.5 |
| 20260509220916 | 76 | 264 | 0.9 | 2.6 | 0.00 | 0.00 | 0.00 | 60 | 1008.5 |
| 20260509220414 | 76 | 264 | 0.0 | 2.6 | 0.00 | 0.00 | 0.00 | 61 | 1008.8 |
| 20260509215913 | 76 | 264 | 0.9 | 3.5 | 0.00 | 0.00 | 0.00 | 59 | 1008.8 |
| 20260509215411 | 76 | 332 | 0.0 | 3.5 | 0.00 | 0.00 | 0.00 | 63 | 1008.8 |
| 20260509214839 | 76 | 58 | 0.9 | 1.7 | 0.00 | 0.00 | 0.00 | 61 | 1008.8 |
| 20260509214337 | 77 | 11 | 0.9 | 1.7 | 0.00 | 0.00 | 0.00 | 60 | 1008.8 |
| 20260509213835 | 77 | 15 | 0.0 | 1.7 | 0.00 | 0.00 | 0.00 | 58 | 1008.8 |
| 20260509213333 | 78 | 103 | 0.9 | 1.7 | 0.00 | 0.00 | 0.00 | 57 | 1008.8 |
| 20260509212832 | 78 | 255 | 0.9 | 1.7 | 0.00 | 0.00 | 0.00 | 55 | 1008.8 |
| 20260509212228 | 78 | 264 | 0.9 | 1.7 | 0.00 | 0.00 | 0.00 | 54 | 1008.8 |
| 20260509211653 | 78 | 65 | 0.9 | 2.6 | 0.00 | 0.00 | 0.00 | 53 | 1008.5 |
| 20260509211119 | 78 | 111 | 0.9 | 2.6 | 0.00 | 0.00 | 0.00 | 54 | 1008.5 |
| 20260509210617 | 79 | 79 | 1.7 | 2.6 | 0.00 | 0.00 | 0.00 | 55 | 1008.5 |
| 20260509210115 | 79 | 41 | 0.9 | 2.6 | 0.00 | 0.00 | 0.00 | 55 | 1008.5 |
| 20260509205614 | 79 | 205 | 0.0 | 2.6 | 0.00 | 0.00 | 0.00 | 58 | 1008.5 |
| 20260509205112 | 79 | 229 | 0.9 | 2.6 | 0.00 | 0.00 | 0.00 | 55 | 1008.5 |
| 20260509204610 | 80 | 280 | 0.9 | 3.5 | 0.00 | 0.00 | 0.00 | 57 | 1008.1 |
| 20260509204109 | 80 | 227 | 0.9 | 5.2 | 0.00 | 0.00 | 0.00 | 53 | 1008.1 |
| 20260509203536 | 80 | 269 | 0.0 | 5.2 | 0.00 | 0.00 | 0.00 | 54 | 1008.1 |
| 20260509203034 | 79 | 222 | 0.9 | 5.2 | 0.00 | 0.00 | 0.00 | 54 | 1008.5 |
| 20260509202502 | 79 | 176 | 1.7 | 5.2 | 0.00 | 0.00 | 0.00 | 54 | 1008.8 |
| 20260509201857 | 79 | 186 | 1.7 | 4.3 | 0.00 | 0.00 | 0.00 | 54 | 1008.8 |
| 20260509201356 | 78 | 168 | 1.7 | 4.3 | 0.00 | 0.00 | 0.00 | 55 | 1008.8 |
| 20260509200854 | 78 | 183 | 1.7 | 4.3 | 0.00 | 0.00 | 0.00 | 56 | 1008.8 |
| 20260509200353 | 78 | 224 | 1.7 | 3.5 | 0.00 | 0.00 | 0.00 | 57 | 1008.8 |
| 20260509195852 | 78 | 134 | 0.9 | 3.5 | 0.00 | 0.00 | 0.00 | 55 | 1008.8 |
| 20260509195351 | 78 | 300 | 0.9 | 3.5 | 0.00 | 0.00 | 0.00 | 54 | 1009.1 |
| 20260509194850 | 79 | 302 | 0.9 | 3.5 | 0.00 | 0.00 | 0.00 | 54 | 1009.1 |
| 20260509194348 | 78 | 301 | 0.9 | 3.5 | 0.00 | 0.00 | 0.00 | 55 | 1009.1 |
| 20260509193847 | 78 | 197 | 0.9 | 3.5 | 0.00 | 0.00 | 0.00 | 54 | 1009.1 |
| 20260509193345 | 78 | 278 | 0.9 | 3.5 | 0.00 | 0.00 | 0.00 | 56 | 1009.1 |
| 20260509192844 | 78 | 180 | 1.7 | 3.5 | 0.00 | 0.00 | 0.00 | 56 | 1009.1 |
| 20260509192342 | 78 | 274 | 1.7 | 3.5 | 0.00 | 0.00 | 0.00 | 54 | 1009.1 |
| 20260509191738 | 78 | 281 | 0.9 | 2.6 | 0.00 | 0.00 | 0.00 | 56 | 1009.1 |
| 20260509191205 | 78 | 326 | 0.9 | 3.5 | 0.00 | 0.00 | 0.00 | 59 | 1009.1 |
| 20260509190704 | 78 | 72 | 0.0 | 3.5 | 0.00 | 0.00 | 0.00 | 58 | 1009.5 |
| 20260509190202 | 77 | 98 | 0.9 | 3.5 | 0.00 | 0.00 | 0.00 | 57 | 1009.5 |
| 20260509185701 | 76 | 172 | 1.7 | 3.5 | 0.00 | 0.00 | 0.00 | 58 | 1009.5 |
| 20260509185127 | 76 | 190 | 1.7 | 7.8 | 0.00 | 0.00 | 0.00 | 61 | 1009.5 |
| 20260509184626 | 76 | 197 | 0.9 | 7.8 | 0.00 | 0.00 | 0.00 | 61 | 1009.1 |
| 20260509184123 | 76 | 311 | 0.9 | 7.8 | 0.00 | 0.00 | 0.00 | 61 | 1009.5 |
| 20260509183618 | 76 | 208 | 1.7 | 7.8 | 0.00 | 0.00 | 0.00 | 59 | 1009.5 |
| 20260509183117 | 76 | 235 | 3.5 | 7.0 | 0.00 | 0.00 | 0.00 | 58 | 1009.1 |
| 20260509182615 | 76 | 255 | 0.9 | 7.8 | 0.00 | 0.00 | 0.00 | 60 | 1009.1 |
| 20260509182042 | 75 | 312 | 1.7 | 8.7 | 0.00 | 0.00 | 0.00 | 62 | 1009.1 |
| 20260509181539 | 75 | 225 | 2.6 | 8.7 | 0.00 | 0.00 | 0.00 | 59 | 1009.1 |
| 20260509181038 | 75 | 227 | 1.7 | 3.5 | 0.00 | 0.00 | 0.00 | 61 | 1009.1 |
| 20260509180536 | 75 | 206 | 0.9 | 3.5 | 0.00 | 0.00 | 0.00 | 63 | 1009.5 |
| 20260509180035 | 75 | 75 | 0.9 | 3.5 | 0.00 | 0.00 | 0.00 | 59 | 1009.5 |
| 20260509175501 | 74 | 89 | 1.7 | 4.3 | 0.00 | 0.00 | 0.00 | 62 | 1009.5 |
| 20260509174959 | 74 | 65 | 1.7 | 4.3 | 0.00 | 0.00 | 0.00 | 61 | 1009.5 |
| 20260509174458 | 74 | 131 | 1.7 | 4.3 | 0.00 | 0.00 | 0.00 | 60 | 1009.5 |
| 20260509173925 | 74 | 184 | 2.6 | 4.3 | 0.00 | 0.00 | 0.00 | 61 | 1009.5 |
| 20260509173423 | 73 | 301 | 0.9 | 5.2 | 0.00 | 0.00 | 0.00 | 64 | 1009.8 |
| 20260509172921 | 73 | 325 | 0.9 | 7.0 | 0.00 | 0.00 | 0.00 | 62 | 1009.5 |
| 20260509172419 | 73 | 11 | 0.9 | 7.0 | 0.00 | 0.00 | 0.00 | 63 | 1009.5 |
| 20260509171845 | 73 | 245 | 2.6 | 7.8 | 0.00 | 0.00 | 0.00 | 62 | 1009.8 |
| 20260509171344 | 72 | 232 | 2.6 | 7.8 | 0.00 | 0.00 | 0.00 | 62 | 1009.8 |
| 20260509170841 | 72 | 203 | 1.7 | 7.8 | 0.00 | 0.00 | 0.00 | 62 | 1009.8 |
| 20260509170339 | 72 | 207 | 3.5 | 7.8 | 0.00 | 0.00 | 0.00 | 62 | 1009.8 |
| 20260509165837 | 72 | 68 | 0.9 | 8.7 | 0.00 | 0.00 | 0.00 | 66 | 1009.8 |
| 20260509165336 | 72 | 262 | 2.6 | 8.7 | 0.00 | 0.00 | 0.00 | 62 | 1010.2 |
| 20260509164803 | 72 | 171 | 1.7 | 7.0 | 0.00 | 0.00 | 0.00 | 64 | 1010.2 |
| 20260509164230 | 71 | 317 | 0.9 | 6.1 | 0.00 | 0.00 | 0.00 | 70 | 1010.2 |
| 20260509163728 | 71 | 166 | 1.7 | 6.1 | 0.00 | 0.00 | 0.00 | 68 | 1010.2 |
| 20260509163155 | 71 | 56 | 2.6 | 6.1 | 0.00 | 0.00 | 0.00 | 65 | 1010.5 |
| 20260509162623 | 71 | 235 | 2.6 | 6.1 | 0.00 | 0.00 | 0.00 | 65 | 1010.2 |
| 20260509162122 | 70 | 197 | 1.7 | 6.1 | 0.00 | 0.00 | 0.00 | 65 | 1010.5 |
| 20260509161445 | 70 | 230 | 3.5 | 6.1 | 0.00 | 0.00 | 0.00 | 66 | 1010.5 |
| 20260509160944 | 70 | 295 | 0.9 | 5.2 | 0.00 | 0.00 | 0.00 | 67 | 1010.5 |
| 20260509160443 | 70 | 213 | 1.7 | 5.2 | 0.00 | 0.00 | 0.00 | 68 | 1010.5 |
| 20260509155941 | 69 | 286 | 1.7 | 6.1 | 0.00 | 0.00 | 0.00 | 69 | 1010.5 |
| 20260509155408 | 69 | 197 | 1.7 | 6.1 | 0.00 | 0.00 | 0.00 | 71 | 1010.5 |
| 20260509154835 | 68 | 224 | 0.9 | 6.1 | 0.00 | 0.00 | 0.00 | 70 | 1010.5 |
| 20260509154300 | 68 | 248 | 2.6 | 6.1 | 0.00 | 0.00 | 0.00 | 71 | 1010.5 |
| 20260509153759 | 68 | 221 | 2.6 | 6.1 | 0.00 | 0.00 | 0.00 | 72 | 1010.5 |
| 20260509153257 | 67 | 226 | 1.7 | 3.5 | 0.00 | 0.00 | 0.00 | 75 | 1010.5 |
| 20260509152755 | 67 | 226 | 1.7 | 4.3 | 0.00 | 0.00 | 0.00 | 73 | 1010.5 |
| 20260509152253 | 67 | 233 | 0.9 | 5.2 | 0.00 | 0.00 | 0.00 | 74 | 1010.5 |
| 20260509151752 | 67 | 175 | 0.9 | 5.2 | 0.00 | 0.00 | 0.00 | 74 | 1010.5 |
| 20260509151250 | 66 | 91 | 1.7 | 6.1 | 0.00 | 0.00 | 0.00 | 75 | 1010.5 |
| 20260509150749 | 66 | 233 | 3.5 | 7.0 | 0.00 | 0.00 | 0.00 | 73 | 1010.5 |
| 20260509150248 | 66 | 143 | 1.7 | 7.8 | 0.00 | 0.00 | 0.00 | 74 | 1010.5 |
| 20260509145745 | 66 | 244 | 2.6 | 7.8 | 0.00 | 0.00 | 0.00 | 77 | 1010.8 |
| 20260509145244 | 65 | 213 | 1.7 | 5.2 | 0.00 | 0.00 | 0.00 | 75 | 1010.8 |
| 20260509144743 | 65 | 127 | 1.7 | 5.2 | 0.00 | 0.00 | 0.00 | 75 | 1010.8 |
| 20260509144241 | 65 | 89 | 1.7 | 6.1 | 0.00 | 0.00 | 0.00 | 76 | 1010.5 |
| 20260509143739 | 65 | 261 | 0.9 | 6.1 | 0.00 | 0.00 | 0.00 | 76 | 1010.5 |
| 20260509143236 | 65 | 234 | 1.7 | 4.3 | 0.00 | 0.00 | 0.00 | 76 | 1010.5 |
| 20260509142733 | 65 | 213 | 1.7 | 4.3 | 0.00 | 0.00 | 0.00 | 76 | 1010.5 |
| 20260509142232 | 65 | 255 | 1.7 | 4.3 | 0.00 | 0.00 | 0.00 | 76 | 1010.5 |
| 20260509141731 | 65 | 207 | 2.6 | 5.2 | 0.00 | 0.00 | 0.00 | 74 | 1010.5 |
| 20260509141229 | 64 | 200 | 1.7 | 5.2 | 0.00 | 0.00 | 0.00 | 78 | 1010.5 |
| 20260509140727 | 64 | 218 | 1.7 | 5.2 | 0.00 | 0.00 | 0.00 | 79 | 1010.5 |
| 20260509140226 | 64 | 223 | 1.7 | 6.1 | 0.00 | 0.00 | 0.00 | 79 | 1010.5 |
| 20260509135725 | 64 | 233 | 1.7 | 6.1 | 0.00 | 0.00 | 0.00 | 79 | 1010.5 |
| 20260509135224 | 63 | 238 | 2.6 | 5.2 | 0.00 | 0.00 | 0.00 | 80 | 1010.2 |
| 20260509134721 | 63 | 223 | 2.6 | 5.2 | 0.00 | 0.00 | 0.00 | 80 | 1010.2 |
| 20260509134220 | 63 | 214 | 2.6 | 6.1 | 0.00 | 0.00 | 0.00 | 80 | 1010.2 |
| 20260509133717 | 62 | 219 | 1.7 | 6.1 | 0.00 | 0.00 | 0.00 | 81 | 1010.2 |
| 20260509133216 | 62 | 201 | 1.7 | 5.2 | 0.00 | 0.00 | 0.00 | 83 | 1010.2 |
| 20260509132715 | 61 | 230 | 1.7 | 2.6 | 0.00 | 0.00 | 0.00 | 84 | 1010.2 |
| 20260509132212 | 60 | 193 | 0.9 | 3.5 | 0.00 | 0.00 | 0.00 | 88 | 1010.2 |
| 20260509131709 | 59 | 94 | 1.7 | 3.5 | 0.00 | 0.00 | 0.00 | 89 | 1010.2 |
| 20260509131208 | 58 | 252 | 1.7 | 2.6 | 0.00 | 0.00 | 0.00 | 91 | 1010.2 |
| 20260509130705 | 57 | 259 | 0.9 | 0.9 | 0.00 | 0.00 | 0.00 | 92 | 1010.5 |
| 20260509130203 | 56 | 262 | 0.9 | 0.9 | 0.00 | 0.00 | 0.00 | 93 | 1010.8 |
| 20260509125702 | 56 | 167 | 0.0 | 0.9 | 0.00 | 0.00 | 0.00 | 94 | 1010.8 |
| 20260509125200 | 55 | 195 | 0.0 | 0.9 | 0.00 | 0.00 | 0.00 | 94 | 1011.2 |
| 20260509124659 | 55 | 194 | 0.0 | 0.9 | 0.00 | 0.00 | 0.00 | 95 | 1010.8 |
| 20260509124125 | 55 | 196 | 0.0 | 0.9 | 0.00 | 0.00 | 0.00 | 95 | 1010.8 |
| 20260509123550 | 55 | 131 | 0.0 | 0.9 | 0.00 | 0.00 | 0.00 | 95 | 1010.8 |
| 20260509123049 | 54 | 131 | 0.0 | 0.9 | 0.00 | 0.00 | 0.00 | 95 | 1010.5 |
| 20260509122548 | 54 | 131 | 0.0 | 0.0 | 0.00 | 0.00 | 0.00 | 95 | 1010.8 |
| 20260509122045 | 54 | 131 | 0.0 | 0.0 | 0.00 | 0.00 | 0.00 | 95 | 1010.8 |
| 20260509121544 | 54 | 131 | 0.0 | 0.0 | 0.00 | 0.00 | 0.00 | 95 | 1010.8 |
| 20260509121042 | 53 | 131 | 0.0 | 0.0 | 0.00 | 0.00 | 0.00 | 95 | 1010.8 |
| 20260509120541 | 53 | 131 | 0.0 | 0.0 | 0.00 | 0.00 | 0.00 | 95 | 1010.8 |
| 20260509120040 | 53 | 131 | 0.0 | 0.9 | 0.00 | 0.00 | 0.00 | 95 | 1010.8 |
| 20260509115538 | 53 | 131 | 0.0 | 0.9 | 0.00 | 0.00 | 0.00 | 95 | 1011.2 |
| 20260509115037 | 53 | 131 | 0.0 | 0.9 | 0.00 | 0.00 | 0.00 | 95 | 1010.8 |
| 20260509114535 | 53 | 131 | 0.9 | 0.9 | 0.00 | 0.00 | 0.00 | 95 | 1010.8 |
| 20260509114034 | 52 | 131 | 0.0 | 0.9 | 0.00 | 0.00 | 0.00 | 95 | 1010.8 |
| 20260509113501 | 52 | 131 | 0.0 | 0.0 | 0.00 | 0.00 | 0.00 | 95 | 1010.5 |
| 20260509113000 | 52 | 131 | 0.0 | 0.0 | 0.00 | 0.00 | 0.00 | 95 | 1010.5 |
| 20260509112458 | 52 | 131 | 0.0 | 0.0 | 0.00 | 0.00 | 0.00 | 95 | 1010.5 |
| 20260509111956 | 52 | 131 | 0.0 | 0.0 | 0.00 | 0.00 | 0.00 | 95 | 1010.5 |
| 20260509111454 | 52 | 131 | 0.0 | 0.0 | 0.00 | 0.00 | 0.00 | 95 | 1010.2 |
| 20260509110953 | 52 | 131 | 0.0 | 0.0 | 0.00 | 0.00 | 0.00 | 95 | 1010.2 |
| 20260509110452 | 52 | 131 | 0.0 | 0.0 | 0.00 | 0.00 | 0.00 | 95 | 1010.2 |
| 20260509105848 | 52 | 131 | 0.0 | 0.0 | 0.00 | 0.00 | 0.00 | 95 | 1010.2 |
| 20260509105345 | 52 | 131 | 0.0 | 0.0 | 0.00 | 0.00 | 0.00 | 95 | 1010.2 |
| 20260509104844 | 52 | 131 | 0.0 | 0.0 | 0.00 | 0.00 | 0.00 | 95 | 1010.2 |
| 20260509104311 | 52 | 131 | 0.0 | 0.9 | 0.00 | 0.00 | 0.00 | 95 | 1010.2 |
| 20260509103738 | 52 | 131 | 0.0 | 0.9 | 0.00 | 0.00 | 0.00 | 95 | 1010.2 |
| 20260509103235 | 52 | 131 | 0.0 | 0.9 | 0.00 | 0.00 | 0.00 | 95 | 1010.5 |
| 20260509102702 | 52 | 158 | 0.0 | 0.0 | 0.00 | 0.00 | 0.00 | 95 | 1010.5 |
| 20260509102200 | 52 | 158 | 0.0 | 0.0 | 0.00 | 0.00 | 0.00 | 95 | 1010.5 |
| 20260509101628 | 51 | 158 | 0.0 | 0.0 | 0.00 | 0.00 | 0.00 | 95 | 1010.5 |
| 20260509101127 | 51 | 158 | 0.0 | 0.0 | 0.00 | 0.00 | 0.00 | 95 | 1010.8 |
| 20260509100625 | 51 | 158 | 0.0 | 0.0 | 0.00 | 0.00 | 0.00 | 95 | 1010.8 |
| 20260509100124 | 51 | 158 | 0.0 | 0.9 | 0.00 | 0.00 | 0.00 | 95 | 1010.8 |
| 20260509095552 | 51 | 158 | 0.0 | 0.9 | 0.00 | 0.00 | 0.00 | 95 | 1010.5 |
| 20260509095050 | 51 | 158 | 0.0 | 0.9 | 0.00 | 0.00 | 0.00 | 95 | 1010.5 |
| 20260509094549 | 51 | 158 | 0.0 | 0.9 | 0.00 | 0.00 | 0.00 | 95 | 1010.5 |
| 20260509094047 | 50 | 158 | 0.0 | 0.9 | 0.00 | 0.00 | 0.00 | 95 | 1010.5 |
| 20260509093546 | 50 | 158 | 0.0 | 0.0 | 0.00 | 0.00 | 0.00 | 95 | 1010.8 |
| 20260509093044 | 50 | 158 | 0.0 | 0.0 | 0.00 | 0.00 | 0.00 | 95 | 1010.8 |
| 20260509092543 | 50 | 158 | 0.0 | 0.0 | 0.00 | 0.00 | 0.00 | 95 | 1010.5 |
| 20260509092011 | 50 | 158 | 0.0 | 0.9 | 0.00 | 0.00 | 0.00 | 95 | 1010.5 |
| 20260509091509 | 49 | 158 | 0.0 | 0.9 | 0.00 | 0.00 | 0.00 | 95 | 1010.2 |
| 20260509091008 | 49 | 158 | 0.0 | 0.9 | 0.00 | 0.00 | 0.00 | 95 | 1010.2 |
| 20260509090506 | 49 | 158 | 0.0 | 0.9 | 0.00 | 0.00 | 0.00 | 95 | 1010.2 |
| 20260509085933 | 49 | 158 | 0.0 | 0.0 | 0.00 | 0.00 | 0.00 | 95 | 1010.5 |
| 20260509085432 | 48 | 158 | 0.0 | 0.0 | 0.00 | 0.00 | 0.00 | 95 | 1010.2 |
| 20260509084929 | 48 | 158 | 0.0 | 0.0 | 0.00 | 0.00 | 0.00 | 95 | 1010.2 |
| 20260509084428 | 48 | 158 | 0.0 | 0.0 | 0.00 | 0.00 | 0.00 | 95 | 1010.2 |
| 20260509083926 | 48 | 158 | 0.0 | 0.0 | 0.00 | 0.00 | 0.00 | 95 | 1010.2 |
| 20260509083250 | 48 | 158 | 0.0 | 0.0 | 0.00 | 0.00 | 0.00 | 95 | 1010.2 |
| 20260509082716 | 48 | 158 | 0.0 | 0.0 | 0.00 | 0.00 | 0.00 | 95 | 1010.2 |
| 20260509082215 | 48 | 158 | 0.0 | 0.0 | 0.00 | 0.00 | 0.00 | 95 | 1010.2 |
| 20260509081714 | 48 | 158 | 0.0 | 0.0 | 0.00 | 0.00 | 0.00 | 95 | 1010.2 |
| 20260509081212 | 48 | 158 | 0.0 | 0.0 | 0.00 | 0.00 | 0.00 | 95 | 1010.2 |
| 20260509080640 | 48 | 158 | 0.0 | 0.0 | 0.00 | 0.00 | 0.00 | 95 | 1010.2 |
| 20260509080139 | 48 | 158 | 0.0 | 0.0 | 0.00 | 0.00 | 0.00 | 95 | 1010.5 |
| 20260509075637 | 48 | 158 | 0.0 | 0.0 | 0.00 | 0.00 | 0.00 | 95 | 1010.5 |
| 20260509075135 | 48 | 157 | 0.0 | 0.0 | 0.00 | 0.00 | 0.00 | 95 | 1010.5 |
| 20260509074634 | 48 | 158 | 0.0 | 0.9 | 0.00 | 0.00 | 0.00 | 95 | 1010.2 |
| 20260509074100 | 48 | 158 | 0.0 | 0.9 | 0.00 | 0.00 | 0.00 | 95 | 1010.2 |
| 20260509073527 | 48 | 158 | 0.0 | 0.9 | 0.00 | 0.00 | 0.00 | 95 | 1010.5 |
| 20260509073025 | 48 | 158 | 0.0 | 0.9 | 0.00 | 0.00 | 0.00 | 95 | 1010.2 |
| 20260509072523 | 48 | 158 | 0.0 | 0.0 | 0.00 | 0.00 | 0.00 | 95 | 1010.2 |
| 20260509072022 | 48 | 158 | 0.0 | 0.0 | 0.00 | 0.00 | 0.00 | 95 | 1010.2 |
| 20260509071520 | 48 | 158 | 0.0 | 0.0 | 0.00 | 0.00 | 0.00 | 95 | 1010.5 |
| 20260509071018 | 48 | 158 | 0.0 | 0.0 | 0.00 | 0.00 | 0.00 | 95 | 1010.2 |
| 20260509070517 | 48 | 157 | 0.0 | 0.0 | 0.00 | 0.00 | 0.00 | 94 | 1010.2 |
| 20260509070015 | 48 | 158 | 0.0 | 0.0 | 0.00 | 0.00 | 0.00 | 94 | 1010.2 |
| 20260509065514 | 48 | 158 | 0.0 | 0.0 | 0.00 | 0.00 | 0.00 | 94 | 1010.2 |
| 20260509064941 | 48 | 158 | 0.0 | 0.0 | 0.00 | 0.00 | 0.00 | 94 | 1010.5 |
| 20260509064439 | 48 | 158 | 0.0 | 0.0 | 0.00 | 0.00 | 0.00 | 94 | 1010.5 |
| 20260509063938 | 48 | 158 | 0.0 | 0.0 | 0.00 | 0.00 | 0.00 | 94 | 1010.5 |
| 20260509063405 | 48 | 158 | 0.0 | 0.0 | 0.00 | 0.00 | 0.00 | 94 | 1010.5 |
| 20260509062903 | 48 | 158 | 0.0 | 0.0 | 0.00 | 0.00 | 0.00 | 94 | 1010.5 |
| 20260509062402 | 49 | 158 | 0.0 | 0.9 | 0.00 | 0.00 | 0.00 | 94 | 1010.5 |
| 20260509061901 | 49 | 158 | 0.0 | 0.9 | 0.00 | 0.00 | 0.00 | 93 | 1010.5 |
| 20260509061359 | 49 | 158 | 0.0 | 0.9 | 0.00 | 0.00 | 0.00 | 93 | 1010.5 |
| 20260509060826 | 49 | 158 | 0.0 | 0.9 | 0.00 | 0.00 | 0.00 | 94 | 1010.5 |
| 20260509060325 | 49 | 158 | 0.0 | 0.9 | 0.00 | 0.00 | 0.00 | 94 | 1010.5 |
| 20260509055752 | 49 | 158 | 0.9 | 0.9 | 0.00 | 0.00 | 0.00 | 94 | 1010.5 |
| 20260509055251 | 49 | 158 | 0.0 | 0.9 | 0.00 | 0.00 | 0.00 | 94 | 1010.8 |
| 20260509054750 | 49 | 158 | 0.9 | 0.9 | 0.00 | 0.00 | 0.00 | 94 | 1010.8 |
| 20260509054248 | 49 | 158 | 0.0 | 0.9 | 0.00 | 0.00 | 0.00 | 94 | 1010.8 |
| 20260509053747 | 49 | 158 | 0.0 | 0.9 | 0.00 | 0.00 | 0.00 | 93 | 1010.8 |
| 20260509053245 | 49 | 158 | 0.0 | 0.0 | 0.00 | 0.00 | 0.00 | 93 | 1011.2 |
| 20260509052744 | 49 | 158 | 0.0 | 0.0 | 0.00 | 0.00 | 0.00 | 93 | 1011.2 |
| 20260509052211 | 49 | 158 | 0.0 | 0.9 | 0.00 | 0.00 | 0.00 | 93 | 1011.2 |
| 20260509051638 | 49 | 158 | 0.0 | 0.9 | 0.00 | 0.00 | 0.00 | 93 | 1011.2 |
| 20260509051136 | 49 | 158 | 0.0 | 0.9 | 0.00 | 0.00 | 0.00 | 93 | 1011.2 |
| 20260509050635 | 49 | 158 | 0.0 | 0.9 | 0.00 | 0.00 | 0.00 | 93 | 1011.2 |
| 20260509050134 | 49 | 158 | 0.9 | 0.9 | 0.00 | 0.00 | 0.00 | 93 | 1011.5 |
| 20260509045632 | 49 | 158 | 0.9 | 0.9 | 0.00 | 0.00 | 0.00 | 93 | 1011.2 |
| 20260509045130 | 49 | 158 | 0.0 | 0.0 | 0.00 | 0.00 | 0.00 | 92 | 1011.2 |
| 20260509044628 | 49 | 158 | 0.0 | 0.0 | 0.00 | 0.00 | 0.00 | 92 | 1011.5 |
| 20260509044127 | 49 | 158 | 0.0 | 0.0 | 0.00 | 0.00 | 0.00 | 92 | 1011.5 |
| 20260509043626 | 49 | 158 | 0.0 | 0.0 | 0.00 | 0.00 | 0.00 | 91 | 1011.5 |
| 20260509043123 | 49 | 158 | 0.0 | 0.0 | 0.00 | 0.00 | 0.00 | 91 | 1011.5 |
| 20260509042621 | 50 | 158 | 0.0 | 0.0 | 0.00 | 0.00 | 0.00 | 91 | 1011.5 |
| 20260509042119 | 50 | 158 | 0.0 | 0.0 | 0.00 | 0.00 | 0.00 | 92 | 1011.5 |
| 20260509041618 | 50 | 158 | 0.0 | 0.0 | 0.00 | 0.00 | 0.00 | 91 | 1011.5 |
| 20260509041116 | 50 | 158 | 0.0 | 0.0 | 0.00 | 0.00 | 0.00 | 90 | 1011.5 |
| 20260509040615 | 50 | 158 | 0.0 | 0.0 | 0.00 | 0.00 | 0.00 | 90 | 1011.9 |
| 20260509040112 | 50 | 158 | 0.0 | 0.9 | 0.00 | 0.00 | 0.00 | 90 | 1011.9 |
| 20260509035611 | 51 | 158 | 0.0 | 0.9 | 0.00 | 0.00 | 0.00 | 90 | 1011.9 |
| 20260509035109 | 51 | 158 | 0.0 | 0.9 | 0.00 | 0.00 | 0.00 | 90 | 1011.9 |
| 20260509034608 | 51 | 158 | 0.0 | 0.9 | 0.00 | 0.00 | 0.00 | 89 | 1011.9 |
| 20260509034106 | 51 | 158 | 0.9 | 0.9 | 0.00 | 0.00 | 0.00 | 89 | 1011.9 |
| 20260509033606 | 51 | 158 | 0.9 | 0.9 | 0.00 | 0.00 | 0.00 | 89 | 1011.9 |
| 20260509033104 | 51 | 158 | 0.0 | 0.0 | 0.00 | 0.00 | 0.00 | 88 | 1011.9 |
| 20260509032501 | 51 | 158 | 0.0 | 0.0 | 0.00 | 0.00 | 0.00 | 87 | 1011.9 |
| 20260509031958 | 52 | 158 | 0.0 | 0.9 | 0.00 | 0.00 | 0.00 | 87 | 1011.9 |
| 20260509031457 | 52 | 158 | 0.0 | 0.9 | 0.00 | 0.00 | 0.00 | 87 | 1011.9 |